Location: Pella
(41.4080°N, 92.9160°W)
Time: 18:40:52
(UTC-05:00)

ATLAS 5 CENTAUR R/B - Visible Passes

Search period start: 31 July 2014 00:00
Search period end: 10 August 2014 00:00
Orbit: 391 x 409 km, 35.7° (Epoch: 30 July)

Date Brightness Start Highest point End Pass type
(mag) Time Alt. Az. Time Alt. Az. Time Alt. Az.
31 Jul 3.1 21:27:09 10° SSW 21:29:03 15° SSE 21:29:32 14° SSE visible
01 Aug 2.7 22:08:03 10° SW 22:09:57 22° SSW 22:09:57 22° SSW visible
02 Aug 2.6 21:12:56 10° SW 21:15:32 21° SSE 21:17:35 13° ESE visible
02 Aug 3.9 22:49:44 10° WSW 22:50:05 12° WSW 22:50:05 12° WSW visible
03 Aug 2.1 21:54:20 10° WSW 21:57:16 29° S 21:57:29 29° S visible
04 Aug 2.4 20:58:56 10° SW 21:01:48 27° S 21:04:40 10° ESE visible
04 Aug 3.4 22:36:08 10° WSW 22:37:13 17° SW 22:37:13 17° SW visible
05 Aug 2.3 21:40:32 10° WSW 21:43:26 29° S 21:44:19 25° SSE visible
06 Aug 3.3 22:22:28 10° WSW 22:23:48 17° SW 22:23:48 17° SW visible
07 Aug 2.7 21:26:37 10° WSW 21:29:20 24° SSW 21:30:44 18° SSE visible
08 Aug 3.6 22:09:00 10° SW 22:10:04 13° SSW 22:10:04 13° SSW visible
09 Aug 3.2 21:12:42 10° WSW 21:14:55 17° SSW 21:16:53 11° SSE visible
